Weather History for Litchfield, MN

Change the Weather History Date:

Thursday, February 13, 2014

  Actual Average Record
Temperature  
Mean Temperature 16 °F -  
Max Temperature 30 °F 27 °F 47 °F (1990)
Min Temperature 1 °F 8 °F -18 °F (1951)
Degree Days  
Heating Degree Days 50    
Moisture  
Dew Point 11 °F    
Average Humidity 86    
Maximum Humidity 100    
Minimum Humidity 73    
Precipitation  
Precipitation 0.00 in - - ()
Sea Level Pressure  
Sea Level Pressure 29.59 in    
Wind  
Wind Speed 13 mph (West)    
Max Wind Speed 25 mph    
Max Gust Speed 34 mph    
Visibility 7 miles    
Events Snow    
Averages and records for this station are not official NWS values.
T = Trace of Precipitation, MM = Missing Value Source: NWS Daily Summary

Daily Weather History Graph

Daily Weather History Graph

Search for Another Location

Airport:

Trip Planner

Search our weather history database for the weather conditions in past years. The results will help you decide how hot, cold, wet, or windy it might be!

Date:

Astronomy

Feb. 13, 2014 Rise Set
Actual Time 7:22 AM CST 5:43 PM CST
Civil Twilight 6:51 AM CST 6:13 PM CST
Nautical Twilight 6:17 AM CST 6:48 PM CST
Astronomical Twilight 5:43 AM CST 7:22 PM CST
Moon 4:52 PM CST (2/13) 6:16 AM CST (2/13)
Length of Visible Light 11h 21m
Length of Day
10h 21m
Waxing Gibbous, 99% of the Moon is Illuminated
Feb 13
Waxing Gibbous
Feb 14
Full
Feb 22
Last Quarter
Mar 1
New
Mar 8
First Quarter

Hourly Weather History & Observations

Time (CST) Temp. Windchill Dew Point Humidity Pressure Visibility Wind Dir Wind Speed Gust Speed Precip Events Conditions
12:13 AM 17.6 °F 5.7 °F 17.6 °F 100% 29.69 in 4.0 mi SSE 10.4 mph 16.1 mph N/A   Overcast
12:32 AM 17.6 °F 6.4 °F 17.6 °F 100% 29.67 in 4.0 mi SSE 9.2 mph 17.3 mph N/A   Overcast
12:53 AM 17.6 °F 3.2 °F 17.6 °F 100% 29.64 in 5.0 mi SE 15.0 mph 18.4 mph N/A   Overcast
1:13 AM 17.6 °F 2.7 °F 17.6 °F 100% 29.62 in 5.0 mi SSE 16.1 mph 24.2 mph N/A   Overcast
1:32 AM 19.4 °F 5.5 °F 17.6 °F 93% 29.60 in 5.0 mi SSE 15.0 mph 20.7 mph N/A   Overcast
1:53 AM 19.4 °F 7.2 °F 17.6 °F 93% 29.57 in 5.0 mi SSE 11.5 mph 24.2 mph N/A   Overcast
2:13 AM 19.4 °F 7.9 °F 19.4 °F 100% 29.56 in 1.2 mi SSE 10.4 mph 23.0 mph N/A Snow Light Snow
2:32 AM 19.4 °F 5.0 °F 19.4 °F 100% 29.52 in 1.2 mi SE 16.1 mph 25.3 mph N/A Snow Light Snow
2:53 AM 21.2 °F 10.1 °F 19.4 °F 93% 29.51 in 4.0 mi SSE 10.4 mph 17.3 mph N/A   Overcast
3:12 AM 21.2 °F 10.9 °F 21.2 °F 100% 29.50 in 4.0 mi SSE 9.2 mph 21.9 mph N/A   Overcast
3:33 AM 21.2 °F 10.9 °F 21.2 °F 100% 29.48 in 4.0 mi SSE 9.2 mph 18.4 mph N/A   Overcast
3:53 AM 23.0 °F 13.9 °F 21.2 °F 93% 29.46 in 5.0 mi SSE 8.1 mph 16.1 mph N/A   Overcast
4:12 AM 23.0 °F 15.8 °F 21.2 °F 93% 29.45 in 5.0 mi SSE 5.8 mph - N/A   Overcast
4:33 AM 24.8 °F 14.6 °F 23.0 °F 93% 29.44 in 5.0 mi South 10.4 mph 17.3 mph N/A   Overcast
4:53 AM 24.8 °F 19.1 °F 21.2 °F 86% 29.43 in 5.0 mi South 4.6 mph - N/A   Mostly Cloudy
5:12 AM 24.8 °F 19.1 °F 21.2 °F 86% 29.43 in 5.0 mi South 4.6 mph - N/A   Scattered Clouds
5:33 AM 24.8 °F 17.9 °F 23.0 °F 93% 29.43 in 5.0 mi West 5.8 mph - N/A   Scattered Clouds
5:53 AM 24.8 °F - 23.0 °F 93% 29.43 in 7.0 mi Calm Calm - N/A   Scattered Clouds
6:12 AM 24.8 °F - 21.2 °F 86% 29.41 in 7.0 mi Calm Calm - N/A   Mostly Cloudy
6:33 AM 26.6 °F 22.6 °F 24.8 °F 93% 29.40 in 7.0 mi SW 3.5 mph - N/A   Overcast
6:53 AM 26.6 °F 19.1 °F 24.8 °F 93% 29.40 in 10.0 mi SW 6.9 mph - N/A   Overcast
7:12 AM 28.4 °F 20.4 °F 24.8 °F 86% 29.40 in 10.0 mi WSW 8.1 mph - N/A   Overcast
7:33 AM 28.4 °F 20.4 °F 26.6 °F 93% 29.41 in 10.0 mi West 8.1 mph - N/A   Overcast
7:53 AM 30.2 °F 17.8 °F 28.4 °F 93% 29.42 in 10.0 mi WNW 19.6 mph 26.5 mph N/A   Overcast
8:12 AM 26.6 °F 14.7 °F 23.0 °F 86% 29.44 in 1.2 mi West 15.0 mph 34.5 mph N/A   Overcast
8:33 AM 23.0 °F 8.3 °F 19.4 °F 86% 29.45 in 1.2 mi West 19.6 mph 32.2 mph N/A   Mostly Cloudy
8:53 AM 21.2 °F 6.8 °F 19.4 °F 93% 29.47 in 2.5 mi WNW 17.3 mph 27.6 mph N/A   Mostly Cloudy
9:12 AM 19.4 °F 3.6 °F 15.8 °F 86% 29.48 in 1.8 mi WNW 19.6 mph 34.5 mph N/A   Overcast
9:33 AM 17.6 °F 0.1 °F 15.8 °F 93% 29.50 in 2.0 mi WNW 23.0 mph 29.9 mph N/A   Overcast
9:53 AM 17.6 °F 0.9 °F 15.8 °F 93% 29.50 in 2.5 mi WNW 20.7 mph 31.1 mph N/A Snow Light Snow
10:13 AM 17.6 °F 1.3 °F 14.0 °F 86% 29.52 in - WNW 19.6 mph 31.1 mph N/A   Unknown
10:33 AM 17.6 °F 0.1 °F 12.2 °F 79% 29.52 in - WNW 23.0 mph 33.4 mph N/A   Overcast
10:53 AM 15.8 °F -1.1 °F 12.2 °F 86% 29.53 in - WNW 19.6 mph 27.6 mph N/A   Unknown
11:13 AM 15.8 °F -3.1 °F 12.2 °F 86% 29.53 in - WNW 25.3 mph 32.2 mph N/A   Overcast
11:32 AM 17.6 °F 0.1 °F 10.4 °F 73% 29.54 in - WNW 23.0 mph 33.4 mph N/A   Overcast
11:53 AM 15.8 °F -2.3 °F 10.4 °F 79% 29.55 in - WNW 23.0 mph 33.4 mph N/A   Overcast
12:13 PM 15.8 °F -2.7 °F 10.4 °F 79% 29.56 in 5.0 mi NW 24.2 mph 33.4 mph N/A   Haze
12:32 PM 14.0 °F -3.4 °F 10.4 °F 86% 29.57 in 4.0 mi WNW 19.6 mph 28.8 mph N/A   Overcast
12:53 PM 14.0 °F -3.9 °F 8.6 °F 79% 29.57 in 5.0 mi WNW 20.7 mph 27.6 mph N/A   Haze
1:32 PM 14.0 °F -3.9 °F 8.6 °F 79% 29.59 in 5.0 mi WNW 20.7 mph 29.9 mph N/A   Haze
1:53 PM 12.2 °F -6.3 °F 8.6 °F 85% 29.60 in 4.0 mi WNW 20.7 mph 31.1 mph N/A   Haze
2:12 PM 12.2 °F -7.1 °F 8.6 °F 85% 29.61 in 4.0 mi WNW 23.0 mph 29.9 mph N/A   Haze
2:33 PM 12.2 °F -7.1 °F 6.8 °F 79% 29.62 in 7.0 mi WNW 23.0 mph 32.2 mph N/A   Overcast
2:53 PM 12.2 °F -7.5 °F 6.8 °F 79% 29.63 in 5.0 mi WNW 24.2 mph 34.5 mph N/A   Haze
3:12 PM 12.2 °F -5.3 °F 6.8 °F 79% 29.64 in 7.0 mi NW 18.4 mph 33.4 mph N/A   Overcast
3:33 PM 12.2 °F -5.3 °F 6.8 °F 79% 29.65 in 10.0 mi WNW 18.4 mph 28.8 mph N/A   Overcast
3:52 PM 10.4 °F -7.7 °F 5.0 °F 79% 29.66 in 10.0 mi NW 18.4 mph 27.6 mph N/A   Overcast
4:12 PM 10.4 °F -6.6 °F 5.0 °F 79% 29.67 in 10.0 mi NW 16.1 mph 24.2 mph N/A   Overcast
4:33 PM 10.4 °F -4.8 °F 3.2 °F 73% 29.69 in 10.0 mi WNW 12.7 mph 23.0 mph N/A   Mostly Cloudy
4:53 PM 10.4 °F -4.1 °F 3.2 °F 73% 29.69 in 10.0 mi NW 11.5 mph 24.2 mph N/A   Clear
5:12 PM 8.6 °F -6.3 °F 3.2 °F 79% 29.70 in 10.0 mi WNW 11.5 mph - N/A   Clear
5:33 PM 8.6 °F -8.3 °F 3.2 °F 79% 29.71 in 10.0 mi WNW 15.0 mph 20.7 mph N/A   Clear
5:53 PM 8.6 °F -5.5 °F 1.4 °F 73% 29.72 in 10.0 mi WNW 10.4 mph - N/A   Clear
6:13 PM 6.8 °F -11.3 °F 1.4 °F 79% 29.73 in 10.0 mi WNW 16.1 mph 19.6 mph N/A   Clear
6:33 PM 6.8 °F -10.7 °F 1.4 °F 79% 29.72 in 10.0 mi NW 15.0 mph 20.7 mph N/A   Clear
6:53 PM 6.8 °F -9.3 °F 1.4 °F 79% 29.73 in 10.0 mi WNW 12.7 mph 20.7 mph N/A   Clear
7:13 PM 5.0 °F -11.6 °F -0.4 °F 78% 29.73 in 10.0 mi WNW 12.7 mph - N/A   Clear
7:33 PM 3.2 °F -12.2 °F -0.4 °F 85% 29.74 in 10.0 mi WNW 10.4 mph - N/A   Clear
7:53 PM 3.2 °F -13.1 °F -0.4 °F 85% 29.74 in 10.0 mi WNW 11.5 mph - N/A   Clear
8:13 PM 3.2 °F -12.2 °F -0.4 °F 85% 29.74 in 10.0 mi WNW 10.4 mph - N/A   Clear
8:33 PM 3.2 °F -13.1 °F -0.4 °F 85% 29.74 in 10.0 mi WNW 11.5 mph - N/A   Clear
8:53 PM 3.2 °F -11.3 °F -0.4 °F 85% 29.75 in 10.0 mi WNW 9.2 mph - N/A   Clear
9:13 PM 1.4 °F -13.5 °F -2.2 °F 85% 29.75 in 10.0 mi WNW 9.2 mph - N/A   Clear
9:33 PM 1.4 °F -12.5 °F -2.2 °F 85% 29.75 in 10.0 mi WNW 8.1 mph - N/A   Clear
9:53 PM 1.4 °F -14.5 °F -2.2 °F 85% 29.76 in 10.0 mi WNW 10.4 mph - N/A   Clear
10:13 PM 3.2 °F -12.2 °F -2.2 °F 78% 29.75 in 10.0 mi NW 10.4 mph - N/A   Clear
10:33 PM 3.2 °F -11.3 °F -2.2 °F 78% 29.74 in 10.0 mi NW 9.2 mph - N/A   Clear
10:53 PM 1.4 °F -14.5 °F -2.2 °F 85% 29.73 in 10.0 mi NNW 10.4 mph - N/A   Clear
11:13 PM 3.2 °F -11.3 °F -2.2 °F 78% 29.74 in 10.0 mi NW 9.2 mph - N/A   Clear
11:33 PM 1.4 °F -12.5 °F -2.2 °F 85% 29.76 in 10.0 mi WNW 8.1 mph - N/A   Clear
11:53 PM 1.4 °F -12.5 °F -2.2 °F 85% 29.76 in 10.0 mi NW 8.1 mph - N/A   Clear